Regional Weather Roundup
Issued by NWS

Home | Current Version | Previous Version | Graphics & Text | Print | Product List | Glossary On
Versions: 1 2 3 4 5 6 7 8 9 10 11 12 13 14 15 16 17 18 19 20 21 22 23 24 25 26 27 28 29 30 31 32 33 34 35 36 37 38 39 40 41 42 43 44 45 46 47 48 49 50
000
ASUS45 KBOI 260910
RWRID
WEATHER ROUNDUP FOR IDAHO
NATIONAL WEATHER SERVICE BOISE ID
300 AM MDT THU MAR 26 2015

NOTE: "FAIR" INDICATES FEW OR NO CLOUDS BELOW 12000 FEET
WITH NO SIGNIFICANT WEATHER AND/OR OBSTRUCTIONS TO VISIBILITY

IDZ012-014-261000-
SOUTHWEST IDAHO


CITY           SKY/WX    TMP DP  RH WIND       PRES   REMARKS
BOISE          CLEAR     39  33  79 SE3       30.42S
CALDWELL       CLEAR     36  27  69 NW3       30.44R
$$

IDZ016-017-261000-
SOUTHCENTRAL IDAHO


CITY           SKY/WX    TMP DP  RH WIND       PRES   REMARKS
BURLEY         CLEAR     40  29  64 SW6       30.39R
JEROME         CLEAR     38  30  73 SW8       30.40S WCI  32
TWIN FALLS     CLEAR     38  28  67 S15       30.39F WCI  29
$$

IDZ019>023-261000-
SOUTHEAST IDAHO


CITY           SKY/WX    TMP DP  RH WIND       PRES   REMARKS
IDAHO FALLS    PTCLDY    35  28  75 S9        30.37R WCI  28
POCATELLO      CLEAR     41  31  67 SW15      30.40R
REXBURG        CLEAR     36  27  69 S13       30.36R WCI  27
$$

IDZ006-010-011-018-031-032-261000-
CENTRAL IDAHO MOUNTAINS


CITY           SKY/WX    TMP DP  RH WIND       PRES   REMARKS
MCCALL         CLOUDY    31  29  92 CALM      30.39S
HAILEY         PTCLDY    36  28  75 W10       30.39S WCI  28
STANLEY          N/A     30  24  78 SE3       30.41F
SALMON         CLOUDY    45  30  57 CALM      30.34F
CHALLIS        CLOUDY    40  27  59 S5        30.38S
$$

IDZ002-004-006-007-026-261000-
NORTHERN IDAHO


CITY           SKY/WX    TMP DP  RH WIND       PRES   REMARKS
LEWISTON       CLOUDY    49  43  80 CALM      30.34S
LOWELL           N/A     44  42  93 NW3       30.42S
COEUR D`ALENE  CLOUDY    45  43  93 S6        30.32R
MULLAN PASS    FOG       33  33 100 W9        30.29R VSB 1/4 WCI  25
$$



USA.gov is the U.S. government's official web portal to all federal, state and local government web resources and services.